| time (UTC) | temp C | wind direction | speed KPH | gust KPH | rain 1hr cm | rain 24hr cm | rain mn cm | humidity % | barometer mb |
| 20260509224109 | 12 | 222 | 3.2 | 4.8 | 0.00 | 0.00 | 0.00 | 55 | 1019.2 |
| 20260509223052 | 12 | 212 | 1.6 | 3.2 | 0.00 | 0.00 | 0.00 | 54 | 1019.2 |
| 20260509222039 | 12 | 211 | 3.2 | 4.8 | 0.00 | 0.00 | 0.00 | 54 | 1019.3 |
| 20260509221018 | 12 | 210 | 1.6 | 4.8 | 0.00 | 0.00 | 0.00 | 54 | 1019.4 |
| 20260509220100 | 12 | 221 | 1.6 | 4.8 | 0.00 | 0.00 | 0.00 | 54 | 1019.5 |
| 20260509215038 | 13 | 0.0 | 3.2 | 0.00 | 0.00 | 0.00 | 52 | 1019.5 | |
| 20260509214020 | 13 | 192 | 1.6 | 4.8 | 0.00 | 0.00 | 0.00 | 52 | 1019.5 |
| 20260509213059 | 13 | 200 | 1.6 | 3.2 | 0.00 | 0.00 | 0.00 | 53 | 1019.6 |
| 20260509212049 | 13 | 221 | 0.0 | 4.8 | 0.00 | 0.00 | 0.00 | 53 | 1019.7 |
| 20260509211036 | 13 | 197 | 1.6 | 3.2 | 0.00 | 0.00 | 0.00 | 53 | 1019.7 |
| 20260509210022 | 13 | 181 | 1.6 | 6.4 | 0.00 | 0.00 | 0.00 | 54 | 1019.7 |
| 20260509205110 | 13 | 186 | 1.6 | 3.2 | 0.00 | 0.00 | 0.00 | 55 | 1019.7 |
| 20260509204055 | 12 | 207 | 0.0 | 3.2 | 0.00 | 0.00 | 0.00 | 56 | 1019.6 |
| 20260509203039 | 12 | 0.0 | 4.8 | 0.00 | 0.00 | 0.00 | 57 | 1019.6 | |
| 20260509202024 | 12 | 207 | 1.6 | 3.2 | 0.00 | 0.00 | 0.00 | 59 | 1019.8 |
| 20260509201112 | 12 | 187 | 1.6 | 3.2 | 0.00 | 0.00 | 0.00 | 60 | 1019.8 |
| 20260509200058 | 12 | 172 | 0.0 | 3.2 | 0.00 | 0.00 | 0.00 | 62 | 1020.0 |
| 20260509195046 | 12 | 222 | 1.6 | 3.2 | 0.00 | 0.00 | 0.00 | 63 | 1020.0 |
| 20260509194052 | 12 | 221 | 3.2 | 3.2 | 0.00 | 0.00 | 0.00 | 61 | 1020.0 |
| 20260509193131 | 12 | 219 | 1.6 | 3.2 | 0.00 | 0.00 | 0.00 | 62 | 1020.2 |
| 20260509192052 | 12 | 217 | 1.6 | 3.2 | 0.00 | 0.00 | 0.00 | 61 | 1020.2 |
| 20260509191039 | 12 | 214 | 1.6 | 3.2 | 0.00 | 0.00 | 0.00 | 61 | 1020.3 |
| 20260509190027 | 12 | 216 | 1.6 | 3.2 | 0.00 | 0.00 | 0.00 | 63 | 1020.2 |
| 20260509185110 | 12 | 224 | 1.6 | 3.2 | 0.00 | 0.00 | 0.00 | 64 | 1020.1 |
| 20260509184114 | 12 | 209 | 1.6 | 3.2 | 0.00 | 0.00 | 0.00 | 64 | 1020.4 |
| 20260509183030 | 12 | 228 | 1.6 | 3.2 | 0.00 | 0.00 | 0.00 | 64 | 1020.1 |
| 20260509182113 | 12 | 207 | 1.6 | 3.2 | 0.00 | 0.00 | 0.00 | 64 | 1020.3 |
| 20260509181055 | 12 | 213 | 0.0 | 3.2 | 0.00 | 0.00 | 0.00 | 64 | 1020.3 |
| 20260509180034 | 12 | 212 | 1.6 | 3.2 | 0.00 | 0.00 | 0.00 | 63 | 1020.3 |
| 20260509175116 | 13 | 202 | 1.6 | 3.2 | 0.00 | 0.00 | 0.00 | 62 | 1020.0 |
| 20260509174053 | 13 | 216 | 1.6 | 3.2 | 0.00 | 0.00 | 0.00 | 62 | 1020.0 |
| 20260509173036 | 12 | 214 | 1.6 | 3.2 | 0.00 | 0.00 | 0.00 | 62 | 1020.0 |
| 20260509172119 | 13 | 226 | 0.0 | 3.2 | 0.00 | 0.00 | 0.00 | 63 | 1019.9 |
| 20260509171058 | 13 | 153 | 0.0 | 3.2 | 0.00 | 0.00 | 0.00 | 62 | 1019.7 |
| 20260509170039 | 12 | 231 | 0.0 | 1.6 | 0.00 | 0.00 | 0.00 | 60 | 1019.5 |
| 20260509165017 | 13 | 229 | 1.6 | 3.2 | 0.00 | 0.00 | 0.00 | 61 | 1019.5 |
| 20260509164059 | 13 | 213 | 0.0 | 3.2 | 0.00 | 0.00 | 0.00 | 59 | 1019.5 |
| 20260509163037 | 13 | 231 | 0.0 | 3.2 | 0.00 | 0.00 | 0.00 | 56 | 1019.4 |
| 20260509162020 | 14 | 214 | 1.6 | 3.2 | 0.00 | 0.00 | 0.00 | 55 | 1019.3 |
| 20260509161103 | 14 | 228 | 1.6 | 3.2 | 0.00 | 0.00 | 0.00 | 54 | 1019.3 |
| 20260509160041 | 14 | 249 | 0.0 | 3.2 | 0.00 | 0.00 | 0.00 | 54 | 1019.3 |
| 20260509155022 | 15 | 242 | 0.0 | 1.6 | 0.00 | 0.00 | 0.00 | 50 | 1019.3 |
| 20260509154121 | 16 | 231 | 1.6 | 3.2 | 0.00 | 0.00 | 0.00 | 51 | 1019.2 |
| 20260509153044 | 16 | 240 | 0.0 | 1.6 | 0.00 | 0.00 | 0.00 | 48 | 1019.2 |
| 20260509152032 | 17 | 0.0 | 3.2 | 0.00 | 0.00 | 0.00 | 48 | 1019.1 | |
| 20260509151116 | 17 | 262 | 0.0 | 3.2 | 0.00 | 0.00 | 0.00 | 46 | 1019.1 |
| 20260509150059 | 17 | 314 | 0.0 | 1.6 | 0.00 | 0.00 | 0.00 | 45 | 1019.0 |
| 20260509145106 | 18 | 0.0 | 1.6 | 0.00 | 0.00 | 0.00 | 43 | 1019.0 | |
| 20260509144024 | 18 | 218 | 0.0 | 3.2 | 0.00 | 0.00 | 0.00 | 42 | 1019.0 |
| 20260509143112 | 19 | 241 | 0.0 | 3.2 | 0.00 | 0.00 | 0.00 | 40 | 1019.0 |
| 20260509142053 | 19 | 354 | 1.6 | 4.8 | 0.00 | 0.00 | 0.00 | 39 | 1019.1 |
| 20260509141113 | 19 | 318 | 1.6 | 4.8 | 0.00 | 0.00 | 0.00 | 39 | 1019.0 |
| 20260509140022 | 20 | 331 | 0.0 | 4.8 | 0.00 | 0.00 | 0.00 | 38 | 1019.1 |
| 20260509135110 | 20 | 357 | 3.2 | 4.8 | 0.00 | 0.00 | 0.00 | 37 | 1019.0 |
| 20260509134113 | 21 | 5 | 3.2 | 8.0 | 0.00 | 0.00 | 0.00 | 37 | 1019.0 |
| 20260509133040 | 22 | 357 | 1.6 | 4.8 | 0.00 | 0.00 | 0.00 | 34 | 1019.1 |
| 20260509132026 | 22 | 4 | 3.2 | 6.4 | 0.00 | 0.00 | 0.00 | 34 | 1019.0 |
| 20260509131113 | 22 | 305 | 3.2 | 8.0 | 0.00 | 0.00 | 0.00 | 34 | 1019.2 |
| 20260509130053 | 21 | 354 | 1.6 | 4.8 | 0.00 | 0.00 | 0.00 | 35 | 1019.1 |
| 20260509125038 | 21 | 339 | 1.6 | 12.9 | 0.00 | 0.00 | 0.00 | 35 | 1019.2 |
| 20260509124037 | 22 | 339 | 1.6 | 8.0 | 0.00 | 0.00 | 0.00 | 34 | 1019.3 |
| 20260509123100 | 21 | 339 | 1.6 | 4.8 | 0.00 | 0.00 | 0.00 | 34 | 1019.3 |
| 20260509122042 | 21 | 359 | 1.6 | 6.4 | 0.00 | 0.00 | 0.00 | 35 | 1019.5 |
| 20260509121030 | 21 | 337 | 3.2 | 6.4 | 0.00 | 0.00 | 0.00 | 35 | 1019.6 |
| 20260509120138 | 21 | 306 | 1.6 | 4.8 | 0.00 | 0.00 | 0.00 | 36 | 1019.7 |
| 20260509115104 | 21 | 349 | 1.6 | 4.8 | 0.00 | 0.00 | 0.00 | 35 | 1019.8 |
| 20260509114106 | 21 | 327 | 3.2 | 8.0 | 0.00 | 0.00 | 0.00 | 35 | 1019.9 |
| 20260509113030 | 22 | 352 | 3.2 | 8.0 | 0.00 | 0.00 | 0.00 | 33 | 1020.0 |
| 20260509112111 | 21 | 341 | 1.6 | 4.8 | 0.00 | 0.00 | 0.00 | 34 | 1020.1 |
| 20260509111048 | 20 | 340 | 3.2 | 6.4 | 0.00 | 0.00 | 0.00 | 35 | 1020.2 |
| 20260509110031 | 21 | 345 | 3.2 | 4.8 | 0.00 | 0.00 | 0.00 | 33 | 1020.3 |
| 20260509105130 | 21 | 333 | 1.6 | 6.4 | 0.00 | 0.00 | 0.00 | 36 | 1020.5 |
| 20260509104113 | 20 | 351 | 3.2 | 6.4 | 0.00 | 0.00 | 0.00 | 36 | 1020.7 |
| 20260509103039 | 20 | 354 | 3.2 | 4.8 | 0.00 | 0.00 | 0.00 | 36 | 1020.8 |
| 20260509102045 | 20 | 350 | 3.2 | 6.4 | 0.00 | 0.00 | 0.00 | 36 | 1021.0 |
| 20260509101105 | 20 | 332 | 1.6 | 6.4 | 0.00 | 0.00 | 0.00 | 37 | 1021.2 |
| 20260509100046 | 19 | 320 | 3.2 | 6.4 | 0.00 | 0.00 | 0.00 | 38 | 1021.4 |
| 20260509095024 | 19 | 343 | 3.2 | 6.4 | 0.00 | 0.00 | 0.00 | 38 | 1021.7 |
| 20260509094108 | 19 | 43 | 3.2 | 8.0 | 0.00 | 0.00 | 0.00 | 38 | 1021.8 |
| 20260509093110 | 19 | 329 | 1.6 | 8.0 | 0.00 | 0.00 | 0.00 | 40 | 1021.9 |
| 20260509092031 | 19 | 197 | 3.2 | 8.0 | 0.00 | 0.00 | 0.00 | 42 | 1022.2 |
| 20260509091118 | 18 | 308 | 3.2 | 4.8 | 0.00 | 0.00 | 0.00 | 42 | 1022.3 |
| 20260509085049 | 18 | 212 | 1.6 | 6.4 | 0.00 | 0.00 | 0.00 | 42 | 1022.5 |
| 20260509084035 | 17 | 326 | 1.6 | 4.8 | 0.00 | 0.00 | 0.00 | 44 | 1022.6 |
| 20260509083121 | 17 | 347 | 1.6 | 4.8 | 0.00 | 0.00 | 0.00 | 47 | 1022.8 |
| 20260509082058 | 17 | 9 | 1.6 | 6.4 | 0.00 | 0.00 | 0.00 | 45 | 1022.7 |
| 20260509081035 | 17 | 207 | 3.2 | 6.4 | 0.00 | 0.00 | 0.00 | 48 | 1022.9 |
| 20260509080017 | 16 | 76 | 1.6 | 6.4 | 0.00 | 0.00 | 0.00 | 50 | 1023.1 |
| 20260509075103 | 16 | 313 | 1.6 | 3.2 | 0.00 | 0.00 | 0.00 | 51 | 1023.2 |
| 20260509074050 | 15 | 0.0 | 3.2 | 0.00 | 0.00 | 0.00 | 51 | 1023.1 | |
| 20260509073035 | 15 | 231 | 1.6 | 4.8 | 0.00 | 0.00 | 0.00 | 54 | 1023.2 |
| 20260509072022 | 15 | 239 | 3.2 | 4.8 | 0.00 | 0.00 | 0.00 | 54 | 1023.2 |
| 20260509071100 | 14 | 267 | 1.6 | 6.4 | 0.00 | 0.00 | 0.00 | 54 | 1022.9 |
| 20260509070038 | 13 | 260 | 0.0 | 6.4 | 0.00 | 0.00 | 0.00 | 56 | 1022.8 |
| 20260509065020 | 13 | 184 | 0.0 | 4.8 | 0.00 | 0.00 | 0.00 | 54 | 1022.6 |
| 20260509064106 | 12 | 195 | 0.0 | 6.4 | 0.00 | 0.00 | 0.00 | 58 | 1022.5 |
| 20260509063036 | 11 | 302 | 0.0 | 3.2 | 0.00 | 0.00 | 0.00 | 63 | 1022.3 |
| 20260509062028 | 10 | 221 | 1.6 | 4.8 | 0.00 | 0.00 | 0.00 | 67 | 1022.1 |
| 20260509061110 | 10 | 224 | 3.2 | 4.8 | 0.00 | 0.00 | 0.00 | 68 | 1021.9 |
| 20260509060052 | 8 | 172 | 1.6 | 6.4 | 0.00 | 0.00 | 0.00 | 74 | 1021.9 |
| 20260509055029 | 7 | 205 | 1.6 | 4.8 | 0.00 | 0.00 | 0.00 | 83 | 1021.9 |
| 20260509054114 | 6 | 231 | 3.2 | 4.8 | 0.00 | 0.00 | 0.00 | 87 | 1021.8 |
| 20260509053057 | 6 | 206 | 1.6 | 1.6 | 0.00 | 0.00 | 0.00 | 88 | 1021.7 |